sat.trackr.live / text

‹ back to catalog

LEMUR-2-EMBRIONOVIS

NORAD 56970 · 2023-084AQ

PAYLOAD ACTIVE UNKNOWN

§ Identity

Operator
Country
US
Launch date
2023-06-12
Launch site
AFWTR
Launch vehicle
Mass (kg)
RCS (m²)

Purposes: earth_obs

External: N2YO · Heavens-Above · Gunter

§ Orbital elements

Epoch: 2026-09-19T08:52:17.823936Z

Period
93.52 min
Inclination
97.6413°
Eccentricity
0.0007766
Mean motion
15.39761059 rev/d
Perigee alt
441.5 km
Apogee alt
452.1 km
Semi-major
6,825.0 km
B*
2.5805e-4
RAAN
50.4200°
Arg perigee
346.9427°
Mean anomaly
13.1616°
Rev number
18,216

§ Raw data

LEMUR-2-EMBRIONOVIS1 56970U 23084AQ  26262.36965074  .00010138  00000+0  25805-3 0  99972 56970  97.6413  50.4200 0007766 346.9427  13.1616 15.39761059182163

JSON: /api/v1/satellites/56970 · /tle

For live sub-satellite position, see the globe view (requires WebGL).

§ Visibility from observer

Set your observer location to see the next 7 days of passes ≥ 10°. The values pass through the URL so the page stays shareable.

No JS? Fill the form by hand. The geolocation button needs JavaScript.